View from above orbital plane
|
View from above satellite
|
Ground track
|
The orbit data is extracted from the following two-line orbital elements,
1 28352U 04021A 22230.78506074 .00000348 00000-0 21653-3 0 9998
2 28352 71.0031 140.9229 0011325 130.9236 229.2867 14.11732717937332
Epoch (UTC): | 18 August 2022 18:50:29 |
Eccentricity: | 0.0011325 |
inclination: | 71.0031° |
perigee height: | 845 km |
apogee height: | 861 km |
right ascension of ascending node: | 140.9229° |
argument of perigee: | 130.9236° |
revolutions per day: | 14.11732717 |
mean anomaly at epoch: | 229.2867° |
orbit number at epoch: | 93733 |
The dashed part of the orbit path shows where the satellite is in the earth's shadow,
|
|